Zurück zum Katalog

STARLINK-36990

AktivKommunikationVLEO
NORAD 68068·PAYLOAD·🇺🇸 United States

Gestartet Mar 2, 2026 von Vandenberg Space Force Base

Loading…

Nächste Überflüge (nächste 24 Stunden)

TLE

AktuellSource: CelesTrak SupGP

Epoche: Sep 15, 2026, 03:51 UTC

1 68068C 26041AE  26258.16090278 -.00056455  00000+0 -16678-2 0  2581
2 68068  53.1579 246.3653 0001353  83.2028 341.2898 15.34421582    15

Verfolge STARLINK-36990 in Echtzeit mit AllMySat

Download on the App Store